This demonstration page uses our WeatherBlox Daily Observations layout. Learn more.

Left ArrowRight Arrow

39.01783, -85.05884

Hourly Observations for March 4, 2015

Temp ( °F °C ) Dew Point ( °F °C ) Humidity (%) Winds ( mph kmh ) Pressure ( in mb ) Visibility ( mi km ) Precip ( " mm )
12:52 am 00:52 Cloudy with Light Rain 39 3.9 39 3.9 100 100 WNW 5 7 29.86 1011 4 6 0.11 2.79
1:37 am 01:37 Cloudy with Rain 39 4 39 4 100 100 NW 7 11 29.91 1013 4 6 0.05 1.27
1:52 am 01:52 Cloudy with Light Rain 38 3.3 38 3.3 100 100 Calm 29.87 1012 3 5 0.09 2.29
2:18 am 02:18 Cloudy with Rain 39 4 37 3 93 93 Calm 29.91 1013 2 3 0.00 0.00
2:52 am 02:52 Cloudy with Light Rain 38 3.3 37 2.8 97 97 W 6 9 29.90 1013 4 6 0.11 2.79
3:52 am 03:52 Cloudy with Rain 37 2.8 35 1.7 93 93 NW 7 11 29.89 1012 5 8 0.12 3.05
4:52 am 04:52 Cloudy with Rain 37 2.8 35 1.7 93 93 WNW 5 7 29.90 1013 3 5 0.16 4.06
5:27 am 05:27 Cloudy with Light Rain 37 3 36 2 93 93 Calm 29.94 1014 4 6 0.04 1.02
5:41 am 05:41 Cloudy with Light Rain 37 3 36 2 93 93 Calm 29.94 1014 4 6 0.06 1.52
5:52 am 05:52 Cloudy with Light Rain 37 2.8 36 2.2 96 96 Calm 29.91 1013 4 6 0.06 1.52
6:52 am 06:52 Cloudy with Light Rain 36 2.2 35 1.7 97 97 Calm 29.92 1013 4 6 0.02 0.51
7:06 am 07:06 Cloudy with Light Rain 36 2 36 2 100 100 SW 3 6 29.97 1015 3 4 0.00 0.00
7:22 am 07:22 Cloudy with Light Rain 36 2 36 2 100 100 WSW 3 6 29.97 1015 2 2 0.00 0.00
7:24 am 07:24 Cloudy with Light Rain 36 2 36 2 100 100 WSW 3 6 29.97 1015 1 1 0.00 0.00
7:36 am 07:36 Cloudy with Light Rain 36 2 34 1 93 93 W 6 9 29.97 1015 2 3 0.00 0.00
7:52 am 07:52 Cloudy with Mist and Fog 36 2.2 34 1.1 93 93 NW 7 11 29.95 1014 1 1 0.00 0.03
8:11 am 08:11 Cloudy with Mist and Fog 36 2 34 1 93 93 WNW 7 11 30.00 1016 1 1 0.00 0.00
8:16 am 08:16 Cloudy with Mist and Fog 36 2 34 1 93 93 NW 8 13 30.00 1016 2 3 0.00 0.00
8:29 am 08:29 Cloudy with Mist and Fog 36 2 34 1 93 93 NNW 6 9 30.00 1016 2 3 0.00 0.00
8:52 am 08:52 Cloudy with Mist and Fog 35 1.7 33 0.6 93 93 NNW 9 15 29.97 1015 2 3 0.00 0.00
9:10 am 09:10 Cloudy with Mist and Fog 36 2 34 1 93 93 NNW 8 13 30.00 1016 3 5 0.00 0.00
9:47 am 09:47 Cloudy with Mist and Fog 36 2 34 1 93 93 NNW 8 13 30.00 1016 3 5 0.00 0.00
9:52 am 09:52 Cloudy with Mist and Fog 35 1.7 33 0.6 93 93 NNW 8 13 29.98 1015 3 5 0.00 0.00
10:52 am 10:52 Cloudy with Mist and Fog 36 2.2 32 0 86 86 NNW 7 11 29.99 1016 3 5 0.00 0.00
11:25 am 11:25 Cloudy with Mist and Fog 36 2 32 0 87 87 NNW 7 11 30.03 1017 3 5 0.00 0.00
11:33 am 11:33 Cloudy with Haze 36 2 30 -1 81 81 NNW 6 9 30.03 1017 6 10 0.00 0.00
11:52 am 11:52 Cloudy with Haze 36 2.2 31 -0.6 82 82 NNW 7 11 30.01 1016 6 10 0.00 0.00
12:52 pm 12:52 Cloudy 36 2.2 31 -0.6 82 82 NNW 8 13 30.01 1016 7 11 0.00 0.03
1:40 pm 13:40 Cloudy 36 2 30 -1 81 81 NNW 14 22 30.03 1017 7 11 0.00 0.00
1:52 pm 13:52 Cloudy 36 2.2 31 -0.6 82 82 NNW 10 17 30.01 1016 7 11 0.00 0.00
2:09 pm 14:09 Cloudy with Light Snow 36 2 30 -1 81 81 NNW 12 19 30.03 1017 6 10 0.00 0.03
2:19 pm 14:19 Cloudy with Light Snow 36 2 30 -1 81 81 NNW 12 19 30.03 1017 2 3 0.00 0.00
2:52 pm 14:52 Cloudy with Light Snow 34 1.1 31 -0.6 89 89 NNW 6 9 30.01 1016 2 2 0.01 0.25
3:06 pm 15:06 Cloudy with Light Snow 34 1 30 -1 87 87 NW 6 9 30.03 1017 1 2 0.00 0.03
3:24 pm 15:24 Cloudy with Light Snow 34 1 30 -1 87 87 NNW 7 11 30.00 1016 1 1 0.01 0.25
3:52 pm 15:52 Cloudy with Light Snow 33 0.6 31 -0.6 92 92 NNW 14 22 29.98 1015 1 1 0.03 0.76
4:52 pm 16:52 Mostly Cloudy with Snow 32 0 29 -1.7 88 88 NNW 17 28 30.02 1017 1 1 0.03 0.76
5:46 pm 17:46 Cloudy with Light Snow 30 -1 28 -2 93 93 NW 15 24 30.12 1020 1 2 0.00 0.00
5:52 pm 17:52 Cloudy with Light Snow 31 -0.6 28 -2.2 89 89 NW 13 20 30.06 1018 1 2 0.04 1.02
6:15 pm 18:15 Cloudy with Light Snow 30 -1 27 -3 86 86 NNW 12 19 30.12 1020 1 2 0.01 0.25
6:33 pm 18:33 Cloudy with Light Snow 30 -1 27 -3 86 86 NW 15 24 30.15 1021 1 1 0.02 0.51
6:52 pm 18:52 Cloudy with Light Snow 29 -1.7 26 -3.3 89 89 NNW 14 22 30.10 1019 1 1 0.03 0.76
7:52 pm 19:52 Cloudy with Light Snow 27 -2.8 24 -4.4 89 89 NNW 15 24 30.14 1021 1 1 0.05 1.27
8:52 pm 20:52 Cloudy with Light Snow 26 -3.3 23 -5 88 88 NW 17 28 30.17 1022 1 1 0.05 1.27
9:11 pm 21:11 Cloudy with Light Snow 25 -4 21 -6 86 86 NNW 16 26 30.21 1023 1 2 0.01 0.25
9:30 pm 21:30 Cloudy with Light Snow 25 -4 21 -6 86 86 NNW 14 22 30.21 1023 1 2 0.02 0.51
9:52 pm 21:52 Cloudy with Light Snow 24 -4.4 21 -6.1 88 88 NNW 15 24 30.19 1022 1 2 0.02 0.51
10:39 pm 22:39 Mostly Cloudy with Light Snow 25 -4 21 -6 86 86 NNW 16 26 30.24 1024 1 1 0.02 0.51
10:52 pm 22:52 Mostly Cloudy with Light Snow 24 -4.4 21 -6.1 88 88 NNW 12 19 30.21 1023 1 1 0.03 0.76
11:29 pm 23:29 Cloudy with Light Snow 23 -5 18 -8 80 80 N 13 20 30.27 1025 1 2 0.01 0.25
11:52 pm 23:52 Cloudy with Light Snow 22 -5.6 15 -9.4 75 75 N 15 24 30.24 1024 1 2 0.02 0.51

Powered by AerisWeather